Virginia Beach, VA (23465)

11:24 AM EST on December 25, 2014 (GMT -0500)
Kempsville | Change Station
CLOSE
Current Station
Personal Weather Station
Location: Virginia Beach, VA
Elevation: 20 ft
Nearby Weather Stations

Elev 20 ft 36.80 °N, 76.19 °W | Updated 3 seconds ago

Mostly Cloudy
Mostly Cloudy
55.0 °F
Feels Like 55.0 °F
N
12.0
Wind Variable Wind from WNW
Gusts 18.0 mph

Today
High -- | Low -- °F
--% Chance of Precip.
Yesterday
High -- | Low -- °F
Precip. -- in
7:15 AM 4:54 PM
Waxing Crescent, 17% visible
Pressure 29.94 in
Visibility 10.0 miles
Clouds Clear
Dew Point 46 °F
Humidity 71%
Rainfall 0.25 in
Snow Depth Not available.
UV 3 out of 12
Pollen .10 out of 12
Air Quality Not available.
Flu Activity Not available.
METAR KORF 251551Z AUTO 26008G14KT 10SM CLR 12/06 A2994 RMK AO2 SLP139 T01220056 TSNO

More Conditions Fewer Conditions

Pressure 29.94 in
Visibility 10.0 miles
Clouds Clear
Dew Point 46 °F
Humidity 71%
Rainfall 0.25 in
Snow Depth Not available.
UV 3 out of 12
Pollen .10 out of 12
Air Quality Not available.
Flu Activity Not available.
METAR KORF 251551Z AUTO 26008G14KT 10SM CLR 12/06 A2994 RMK AO2 SLP139 T01220056 TSNO

More Conditions Fewer Conditions

10-Day Weather Forecast

Almanac

Astronomy

Dec. 25, 2014 Rise Set
Actual Time
Civil Twilight
Nautical Twilight
Astronomical Twilight
Moon
Length of Visible Light
Length of Day
Tomorrow will be .
, % of the Moon is Illuminated

Today's Extremes

State Highs State Lows

Community

WunderPhotos

Upload Photos

1,780,330 photos uploaded!

WunderBlogs® & News

Nearby

Air Quality

  Air Quality AQ Index Pollutant
Not available.

Snow Depth

Station Depth Elevation

Earthquake Activity

City Distance Mag. Time & Date
Minimum magnitude displayed is 2.5.

Coastal Water Temperatures

Place Temperature

Nearby Weather Stations